Hourly Weather Roundup
Issued by NWS Central Illinois

Home | Current Version | Previous Version | Text Only | Print | Product List | Glossary On
Versions: 1 2 3 4 5 6 7 8 9 10 11 12 13 14 15 16 17 18 19 20 21 22 23 24 25 26 27 28 29 30 31 32 33 34 35 36 37 38 39 40 41 42 43 44 45 46 47 48 49 50
193
NZUS43 KILX 191610
HWRILX

AREA WEATHER ROUNDUP
NATIONAL WEATHER SERVICE, LINCOLN IL
1000 AM CST THU JAN 19 2017


CITY           SKY/WX    TMP DP  RH WIND       PRES   REMARKS
BLOOMINGTON    PTSUNNY   38  36  92 SE12      29.95S FOG     WCI  30
CHAMPAIGN      PTSUNNY   39  37  92 SE13      29.97R FOG     WCI  31
DANVILLE       CLOUDY    38  37  92 SE9       29.96R FOG     WCI  32
DECATUR        PTSUNNY   40  39  97 SE10      29.95F FOG     WCI  33
EFFINGHAM      CLOUDY    42  41  95 E7        29.97F FOG
FLORA          CLOUDY    45  40  83 E7        29.96F
GALESBURG      CLOUDY    36  36 100 E8        29.89F FOG     WCI  29
JACKSONVILLE   CLOUDY    43  40  91 E10       29.89F
LACON          PTSUNNY   37  35  96 SE6       29.95R FOG     WCI  32
LAWRENCEVILLE  CLOUDY    44  40  85 E8        29.99S
LITCHFIELD     LGT RAIN  41  40  97 SE10      29.92F WCI  35
$$


CITY           SKY/WX    TMP DP  RH WIND       PRES   REMARKS
LINCOLN        CLOUDY    40  39  95 SE8       29.94F FOG
MACOMB         CLOUDY    37  37 100 SE12      29.92S FOG     WCI  29
MATTOON        CLOUDY    41  37  86 SE7       29.95F
MT CARMEL AP   CLOUDY    44  39  82 E9        29.98R
OLNEY-NOBLE AP CLOUDY    43  43 100 E7        29.98R
PARIS          CLOUDY    39  37  93 SE7       29.99F FOG     WCI  34
PEORIA         MOSUNNY   39  37  92 SE7       29.93S FOG     WCI  34
PONTIAC          N/A     35  35 100 SE7       29.98R FOG     WCI  29
RANTOUL        PTSUNNY   40  38  94 SE7       29.97F FOG
SPRINGFIELD    CLOUDY    43  39  86 SE14      29.93S FOG
TAYLORVILLE    CLOUDY    41  39  93 E8        29.94F FOG
$$

...REGIONAL REPORTS...


CITY           SKY/WX    TMP DP  RH WIND       PRES   REMARKS
CHICAGO O`HARE CLOUDY    36  35  96 SE5       29.98F FOG     WCI  32
KANKAKEE       CLOUDY    37  35  94 SE9       29.98F FOG     WCI  30
MOLINE         CLOUDY    36  33  89 NE5       29.91S FOG     WCI  32
MOUNT STERLING CLOUDY    40  39  94 SE12      29.89S FOG     WCI  34
MOUNT VERNON   LGT RAIN  45  40  82 E6        29.95R
PITTSFIELD     CLOUDY    42  41  97 SE6       29.90F FOG
QUINCY         LGT RAIN  41  41 100 S8        29.88S VSB 1
ROCKFORD       FOG       34  33  96 SE7       29.98S VSB 3/4 WCI  28
$$


CITY           SKY/WX    TMP DP  RH WIND       PRES   REMARKS
BURLINGTON     CLOUDY    37  37 100 SE6       29.87S FOG     WCI  32
CEDAR RAPIDS   CLOUDY    32  32 100 E7        29.88S FOG     WCI  26
DES MOINES     CLOUDY    34  33  96 SE6       29.85F FOG     WCI  29
KIRKSVILLE     FOG       39  39 100 E5        29.84F VSB 1/4
OTTUMWA        CLOUDY    38  35  89 CALM      29.85S FOG
ST LOUIS       LGT RAIN  45  42  89 SE9       29.91F FOG
$$


CITY           SKY/WX    TMP DP  RH WIND       PRES   REMARKS
TERRE HAUTE    PTSUNNY   42  37  82 E8        29.99S
EVANSVILLE     CLOUDY    47  40  76 E5        29.99R
INDIANAPOLIS   PTSUNNY   42  37  82 E12       30.00F
LAFAYETTE      CLOUDY    39  37  92 E7        29.99F FOG     WCI  34
MADISON        FOG       32  32 100 S8        29.95S VSB 1/8 WCI  25
MILWAUKEE      FOG       34  32  92 S6        29.99S VSB 1/4 WCI  29
$$






USA.gov is the U.S. government's official web portal to all federal, state and local government web resources and services.